Probability
0 0 0 0 0 0 0 0 0 0 0 0 0 0 0 0 0 0 0 0 0 0 0 0 0 0 0 0 0 0 0 0 0 0 0 0 0 0 0 0 0 0 0 0
0 0 0 0 0 0 0 0 0 0 0 0 0 0 0 0 0 0 0 0 0 0 0 0 0 0 0 0 0 0 0 0 0 0 0 0 0 0 0 0 0 0 0 0
0 0 0 0 0 0 0 0 0 0 0 0 0 0 0 0 0 0 0 0 0 0 0 0 0 0 0 0 0 0 0 0 0 0 0 0 0 0 0 0 0 0 0 0
0 0 0 0 0 0 0 0 0 0 0 0 0 0 0 0 0 0 0 0 0 0 0 0 0 0 0 0 0 0 0 0 0 0 0 0 0 0 0 0 0 0 0 0
0 0 0 0 0 0 0 0 0 0 0 0 0 0 0 0 0 0 0 0 0 0 0 0 0 0 0 0 0 0 0 0 0 0 0 0 0 0 0 0 0 0 0 0
0 0 0 0 0 0 0 0 0 0 0 0 0 0 0 0 0 0 0 0 0 0 0 0 0 0 0 0 0 0 0 0 0 0 0 0 0 0 0 0 0 0 0 0
0 0 0 0 0 0 0 0 0 0 0 0 0 0 0 0 0 0 0 0 0 0 0 0 0 0 0 0 0 0 0 0 0 0 0 0 0 0 0 0 0 0 0 0
0 0 0 0 0 0 0 0 0 0 0 0 0 0 0 0 0 0 0 0 0 0 0 0 0 0 0 0 0 0 0 0 0 0 0 0 0 0 0 0 0 0 0 0
0 0 0 0 0 0 0 0 0 0 0 0 0 0 0 0 0 0 0 0 0 0 0 0 0 0 0 0 0 0 0 0 0 0 0 0 0 0 0 0 0 0 0 0
0 0 0 0 0 0 0 0 0 0 0 0 0 0 0 0 0 0 0 0 0 0 0 0 0 0 0 0 0 0 0 0 0 0 0 0 0 0 0 0 0 0 0 0
0 0 0 0 0 0 0 0 0 0 0 0 0 0 0 0 0 0 0 0 0 0 0 0 0 0 0 0 0 0 0 0 0 0 0 0 0 0 0 0 0 0 0 0
0 0 0 0 0 0 0 0 0 0 0 0 0 0 0 0 0 0 0 0 0 0 0 0 0 0 0 0 0 0 0 0 0 0 0 0 0 0 0 0 0 0 0 0
0 0 0 0 0 0 0 0 0 0 0 0 0 0 0 0 0 0 0 0 0 0 0 0 0 0 0 0 0 0 0 0 0 0 0 0 0 0 0 0 0 0 0 0
0 0 0 0 0 0 0 0 0 0 0 0 0 0 0 0 0 0 0 0 0 0 0 0 0 0 0 0 0 0 0 0 0 0 0 0 0 0 0 0 0 0 0 0
0 0 0 0 0 0 0 0 0 0 0 0 0 0 0 0 0 0 0 0 0 0 0 0 0 0 0 0 0 0 0 0 0 0 0 0 0 0 0 0 0 0 0 0
0 0 0 0 0 0 0 0 0 0 0 0 0 0 0 0 0 0 0 0 0 0 0 0 0 0 0 0 0 0 0 0 0 0 0 0 0 0 0 0 0 0 0 0
0 0 0 0 0 0 0 0 0 0 0 0 0 0 0 0 0 0 0 0 0 0 0 0 0 0 0 0 0 0 0 0 0 0 0 0 0 0 0 0 0 0 0 0
0 0 0 0 0 0 0 0 0 0 0 0 0 0 0 0 0 0 0 0 0 0 0 0 0 0 0 0 0 0 0 0 0 0 0 0 0 0 0 0 0 0 0 0
0 0 0 0 0 0 0 0 0 0 0 0 0 0 0 0 0 0 0 0 0 0 0 0 0 0 0 0 0 0 0 0 0 0 0 0 0 0 0 0 0 0 0 0
0 0 0 0 0 0 0 0 0 0 0 0 0 0 0 0 0 0 0 0 0 0 0 0 0 0 0 0 0 0 0 0 0 0 0 0 0 0 0 0 0 0 0 0
0 0 0 0 0 0 0 0 0 0 0 0 0 0 0 0 0 0 0 0 0 0 0 0 0 0 0 0 0 0 0 0 0 0 0 0 0 0 0 0 0 0 0 0
0 0 0 0 0 0 0 0 0 0 0 0 0 0 0 0 0 0 0 0 0 0 0 0 0 0 0 0 0 0 0 0 0 0 0 0 0 0 0 0 0 0 0 0
0 0 0 0 0 0 0 0 0 0 0 0 0 0 0 0 0 0 0 0 0 0 0 0 0 0 0 0 0 0 0 0 0 0 0 0 0 0 0 0 0 0 0 0
0 0 0 0 0 0 0 0 0 0 0 0 0 0 0 0 0 0 0 0 0 0 0 0 0 0 0 0 0 0 0 0 0 0 0 0 0 0 0 0 0 0 0 0
0 0 0 0 0 0 0 0 0 0 0 0 0 0 0 0 0 0 0 0 0 0 0 0 0 0 0 0 0 0 0 0 0 0 0 0 0 0 0 0 0 0 0 0
0 0 0 0 0 0 0 0 0 0 0 0 0 0 0 0 0 0 0 0 0 0 0 0 0 0 0 0 0 0 0 0 0 0 0 0 0 0 0 0 0 0 0 0
0 0 0 0 0 0 0 0 0 0 0 0 0 0 0 0 0 0 0 0 0 0 0 0 0 0 0 0 0 0 0 0 0 0 0 0 0 0 0 0 0 0 0 0
Wind_Speed
17 20 20 22 24 20 22 23 22 24 26 24 19 16 15 15 14 14 12 5 5 8 10 11 12 13 13 14 13 14 16 16 16 16 15 15 14 12 11 9 8 6 5 4
14 19 20 23 23 21 20 21 24 26 27 21 15 11 12 13 13 12 8 4 8 9 11 12 13 13 14 14 13 14 16 16 16 16 15 14 13 12 10 8 7 5 4 2
10 12 14 12 10 10 11 13 15 19 19 14 12 12 12 11 11 9 5 6 10 11 11 11 12 14 15 14 15 15 16 16 16 15 15 13 12 11 9 7 6 4 3 1
7 9 7 4 6 9 11 13 14 17 15 11 10 10 9 8 8 6 2 8 10 11 11 12 12 13 15 15 16 16 16 16 15 15 14 12 11 9 8 6 4 3 2 1
4 7 10 8 5 5 5 7 7 12 14 12 7 7 4 4 4 2 4 9 11 12 13 13 14 15 16 16 16 16 15 15 14 14 13 11 10 8 6 5 4 2 1 2
4 6 6 6 6 3 4 4 7 7 8 8 5 3 3 7 6 7 10 11 12 13 14 15 14 15 16 16 15 15 14 14 12 12 11 10 9 7 5 4 3 1 0 2
7 6 8 7 7 4 4 8 9 8 5 5 4 1 5 7 9 10 12 13 13 14 13 13 14 15 16 15 14 13 13 13 11 10 10 9 8 6 4 3 1 0 2 3
5 6 7 2 3 3 6 7 7 6 2 4 6 7 8 9 10 11 12 13 13 13 13 12 13 15 16 14 13 13 13 12 11 10 8 7 7 5 3 1 0 2 4 5
7 7 4 2 6 7 6 7 5 3 2 8 8 7 8 10 11 11 12 12 12 14 15 12 11 13 17 13 13 13 13 12 10 9 7 6 5 4 2 0 2 3 4 5
7 10 9 8 7 4 3 4 3 2 7 7 9 11 11 10 10 11 12 12 12 14 15 13 12 13 15 13 12 13 13 11 9 8 6 5 3 2 1 1 2 3 5 5
7 8 7 2 2 2 3 4 6 7 7 10 14 13 12 11 11 11 11 11 11 13 15 14 13 13 12 12 12 12 11 9 7 6 5 4 3 1 1 1 3 6 5 6
4 2 3 3 3 3 4 5 7 11 12 11 11 14 13 12 11 11 12 12 13 14 15 14 13 12 10 10 11 11 9 7 5 4 3 2 1 0 1 3 5 7 8 9
3 1 1 2 3 4 5 7 8 9 12 13 12 12 14 13 12 12 13 13 14 14 14 14 13 11 9 8 9 9 8 6 4 3 2 1 1 2 3 2 4 6 7 10
5 4 3 4 4 6 9 10 11 12 12 12 12 12 13 14 13 13 13 13 14 14 13 13 12 10 8 8 8 8 7 6 4 3 1 0 1 3 4 5 6 6 6 9
6 6 2 7 9 10 11 12 13 12 12 12 11 12 13 14 14 13 12 13 13 13 12 12 12 9 7 8 8 7 5 4 3 2 1 1 2 3 4 5 6 7 7 8
4 5 8 10 11 12 13 13 13 13 12 13 12 12 13 14 14 13 12 12 13 13 11 11 10 8 7 7 7 5 4 4 2 1 1 2 3 4 4 5 6 7 7 7
7 7 8 9 12 13 12 11 12 13 13 13 14 14 14 15 14 12 11 10 11 11 10 10 9 8 6 6 5 4 3 3 2 1 2 3 4 4 5 6 6 7 7 9
6 6 9 11 13 14 13 12 12 13 13 13 15 14 14 14 14 12 11 11 12 10 8 8 8 7 6 5 4 3 2 2 2 2 2 3 4 4 5 6 7 8 8 9
5 6 8 11 13 13 13 14 13 13 14 14 14 14 13 12 12 12 12 12 11 10 7 7 10 7 6 5 4 3 2 2 1 2 3 5 5 4 5 6 7 8 8 8
5 6 9 11 12 13 14 14 14 14 13 14 15 14 13 12 12 12 11 9 6 6 8 8 7 6 5 4 3 2 2 1 2 3 3 4 5 5 5 6 7 8 8 8
7 9 11 12 12 12 13 15 15 15 14 13 14 15 14 12 11 10 10 8 6 7 8 9 5 4 4 3 3 1 1 2 3 3 4 4 5 6 6 6 7 7 8 8
7 10 12 12 13 13 11 11 13 15 15 13 14 14 14 13 11 9 7 6 8 9 6 4 4 5 5 3 1 1 2 3 3 4 4 5 5 6 6 7 7 8 8 8
7 9 11 12 13 14 13 12 12 13 14 14 14 14 13 10 8 8 7 6 6 9 6 4 6 7 5 2 1 2 3 4 4 4 4 5 5 6 7 8 7 7 8 8
8 10 10 12 13 14 14 12 11 10 13 12 11 12 12 9 6 5 7 11 11 10 5 7 8 6 4 2 2 3 3 4 4 4 5 5 5 6 6 7 7 7 8 9
9 10 11 13 12 11 13 14 14 13 13 11 11 9 7 5 7 8 8 9 11 9 5 6 6 4 2 2 3 3 4 4 5 6 5 5 6 6 6 7 7 7 8 8
9 9 8 8 8 9 10 10 10 9 10 10 8 6 7 8 9 8 7 8 8 7 4 3 2 2 2 3 3 4 4 5 5 5 5 6 7 7 7 7 9 8 8 8
9 8 8 8 8 8 8 9 10 10 10 11 10 7 8 8 7 7 7 6 5 4 3 2 1 2 3 3 4 4 4 4 5 5 6 6 6 6 7 8 7 7 8 8
Wind_Direction
259 272 272 266 265 257 243 242 250 260 265 272 277 283 289 294 297 296 296 271 188 160 146 142 139 135 130 130 133 133 128 124 123 122 122 122 123 123 124 126 129 134 134 128
270 269 269 270 270 266 257 248 248 260 268 275 284 283 286 292 293 292 292 214 169 153 146 144 140 134 130 129 130 127 121 120 122 122 122 122 124 125 126 128 132 135 131 116
282 299 292 274 276 266 250 241 243 253 261 273 277 282 285 288 288 291 280 178 158 151 146 141 138 135 132 129 126 121 118 120 122 123 122 124 127 128 131 134 138 138 126 95
289 307 288 307 303 283 274 270 252 251 262 272 274 283 288 294 295 291 207 156 146 137 130 128 128 127 124 122 120 119 119 121 123 124 125 128 129 128 131 135 139 138 124 11
279 292 283 295 317 310 296 298 301 265 260 261 274 285 293 348 330 284 143 135 129 127 126 125 125 125 121 118 118 119 122 124 127 128 130 131 130 130 133 138 138 138 141 334
270 292 290 308 328 319 261 318 8 326 275 257 252 283 25 23 35 83 104 113 118 121 122 121 124 125 120 119 120 121 123 124 126 129 131 130 127 127 129 135 136 149 303 323
247 264 275 287 310 298 326 350 343 331 296 221 208 50 55 55 67 83 97 108 116 118 117 120 125 123 117 115 115 117 118 119 120 121 120 120 121 124 132 136 141 310 308 308
213 235 265 279 306 313 319 322 321 322 306 153 114 91 82 79 84 91 98 105 111 111 110 116 122 119 111 109 114 116 116 115 115 115 113 119 125 128 129 125 309 318 318 319
220 245 298 289 267 290 310 302 316 320 129 131 119 110 101 95 94 95 100 105 109 112 110 109 111 114 111 116 120 119 117 115 114 114 116 125 131 134 134 92 332 328 325 320
260 266 274 281 285 295 323 313 334 133 137 136 125 122 113 106 102 102 103 108 113 112 108 104 103 105 113 121 123 120 118 119 122 124 126 127 122 116 98 354 333 325 320 319
257 276 294 306 334 2 58 77 94 101 113 125 125 123 119 112 109 107 107 108 108 107 106 107 109 109 113 120 123 121 122 124 128 129 131 126 115 78 355 344 322 319 319 317
246 290 286 347 44 97 106 101 109 112 110 116 122 123 119 113 112 112 110 109 108 107 109 112 111 109 112 122 127 127 127 130 129 128 124 113 91 88 229 295 311 310 311 313
271 63 22 90 107 114 115 115 116 116 121 121 119 121 119 115 113 113 112 112 113 112 113 113 111 110 115 123 126 126 126 126 125 122 113 88 5 330 320 281 264 290 303 314
216 183 194 175 150 132 124 117 111 109 111 115 119 119 117 114 114 112 112 113 113 113 114 115 113 111 116 120 117 115 114 111 111 109 104 41 326 322 320 320 319 316 313 313
210 208 162 127 128 130 131 129 122 118 118 116 118 119 120 118 116 114 115 116 115 113 115 116 113 113 117 117 113 111 110 113 117 116 102 332 323 316 313 309 306 309 312 315
134 135 139 146 149 150 150 147 138 134 130 126 121 117 116 115 115 116 120 125 123 121 121 119 115 117 116 113 113 110 108 112 112 87 16 336 324 314 310 308 307 309 313 320
153 165 167 166 167 165 163 157 146 140 137 131 127 125 123 121 118 117 116 115 114 115 118 119 118 118 116 117 118 114 112 105 76 28 359 335 318 311 311 309 310 311 312 318
206 196 187 179 169 162 154 145 141 140 137 134 133 133 132 132 129 125 122 118 112 106 106 114 118 120 119 119 113 104 92 72 38 1 332 320 316 315 310 309 311 311 311 316
191 175 168 164 160 154 146 142 140 135 135 139 137 133 129 127 126 127 129 127 126 122 124 129 130 127 125 118 104 82 68 53 7 336 325 318 310 309 311 309 309 310 313 316
153 147 146 143 142 144 141 139 136 136 139 138 132 128 126 126 128 129 127 119 117 127 134 135 132 127 124 112 93 72 57 11 339 328 320 314 313 312 309 309 311 312 313 314
141 137 137 136 134 135 139 141 140 138 140 141 137 133 129 128 129 129 128 119 119 129 134 136 131 129 124 113 92 58 18 345 328 321 314 310 309 308 309 310 311 312 313 313
135 136 135 134 133 132 136 137 136 135 134 131 127 127 128 128 126 116 106 121 136 139 132 131 130 129 120 107 63 24 347 327 316 310 305 305 307 308 310 314 313 312 309 307
131 132 134 136 134 130 126 128 132 132 132 133 134 135 132 130 131 128 122 130 137 138 131 130 131 123 107 78 31 348 323 311 305 302 302 305 306 307 309 309 307 306 305 304
131 131 129 129 129 127 125 123 120 118 119 118 121 126 128 123 108 101 122 138 137 130 120 122 119 104 79 35 345 317 307 303 301 300 302 304 305 305 302 300 299 299 298 299
130 130 134 138 136 130 126 123 118 116 111 109 110 109 106 109 119 124 124 128 127 116 102 99 93 77 39 340 315 306 302 300 303 308 309 308 303 299 296 294 293 293 293 293
139 139 141 137 129 133 136 133 128 127 124 119 111 104 104 106 112 113 110 112 114 109 99 80 52 23 337 314 305 304 303 306 309 307 301 297 294 293 291 291 292 288 287 287
131 129 124 120 127 135 133 130 130 132 133 130 123 119 118 115 113 112 110 108 105 99 89 64 15 331 313 307 304 305 303 300 299 297 294 290 288 285 285 285 284 285 285 285